Latest Coastal Weather Observations for Willis Island

IDQ60701

Issued at 7:52 pm EST Sunday 7 March 2021 (issued every 10 minutes, with the page automatically refreshed every 10 minutes)

About coastal observations | Map of coastal stations | Coastal observations for QLD | Marine services | Other Formats
Station Details ID: 200283 Name: WILLIS ISLAND Lat: -16.29 Lon: 149.97 Height: 9.29 m
Data from the previous 72 hours. | See also: Recent months at Willis Island
Date/Time
EST
Wind Sea
Height
m
Swell Vis
km
Cloud Weather Temp
°C
Press
MSL
hPa
Rain since
9am
mm
Dir  Spd
kts
Gust
kts
Height
m
Period
s
Dir
07/07:30pm ESE 13 16 - - - - - - - 27.1 1011.9 0.0
07/07:00pm ESE 12 14 - - - - - - - 27.1 1011.7 0.0
07/06:30pm ESE 14 16 - - - - - - - 27.2 1011.4 0.0
07/06:00pm ESE 12 15 - - - - - - - 27.4 1010.9 0.0
07/05:30pm ESE 12 15 - - - - - - - 27.9 1010.6 0.0
07/05:00pm ESE 13 15 - - - - - - - 28.2 1010.3 0.0
07/04:30pm ESE 12 15 - - - - - - - 28.4 1010.3 0.0
07/04:00pm ESE 12 14 - - - - - - - 29.1 1010.1 0.0
07/03:30pm ESE 12 14 - - - - - - - 29.1 1010.0 0.0
07/03:00pm ESE 12 14 - - - - - - - 29.4 1010.0 0.0
07/02:30pm E 11 13 - - - - - - - 29.6 1010.2 0.0
07/02:00pm E 11 13 - - - - - - - 29.5 1010.3 0.0
07/01:30pm ESE 12 13 - - - - - - - 29.6 1010.7 0.0
07/01:00pm ESE 12 14 - - - - - - - 29.7 1010.9 0.0
07/12:30pm ESE 12 14 - - - - - - - 29.7 1011.2 0.0
07/12:00pm E 13 15 - - - - - - - 29.7 1011.6 0.0
07/11:30am E 13 15 - - - - - - - 29.6 1011.9 0.0
07/11:00am E 13 15 - - - - - - - 29.6 1012.1 0.0
07/10:30am ESE 13 15 - - - - - - - 29.5 1012.3 0.0
07/10:00am E 12 14 - - - - - - - 29.3 1012.3 0.0
07/09:30am E 11 13 - - - - - - - 29.2 1012.4 0.0
07/09:00am E 11 13 - - - - - - - 29.0 1012.5 0.0
07/08:30am E 11 13 - - - - - - - 28.8 1012.2 0.0
07/08:00am E 12 14 - - - - - - - 28.3 1011.7 0.0
07/07:30am E 11 14 - - - - - - - 27.9 1011.4 0.0
07/07:00am ESE 12 15 - - - - - - - 27.5 1010.9 0.0
07/06:30am E 12 15 - - - - - - - 27.2 1010.5 0.0
07/06:00am E 12 13 - - - - - - - 26.8 1010.3 0.0
07/05:30am ESE 11 13 - - - - - - - 26.8 1010.1 0.0
07/05:00am ESE 11 13 - - - - - - - 26.8 1009.6 0.0
07/04:30am ESE 10 12 - - - - - - - 26.8 1009.2 0.0
07/04:00am E 10 12 - - - - - - - 26.7 1009.0 0.0
07/03:30am E 10 12 - - - - - - - 26.7 1008.9 0.0
07/03:00am E 10 12 - - - - - - - 26.7 1008.8 0.0
07/02:30am E 9 11 - - - - - - - 26.6 1009.1 0.0
07/02:00am ENE 8 11 - - - - - - - 26.7 1009.2 0.0
07/01:30am ENE 9 11 - - - - - - - 26.8 1009.1 0.0
07/01:00am E 7 10 - - - - - - - 26.6 1009.5 0.0
07/12:30am E 7 9 - - - - - - - 26.5 1010.0 0.0
07/12:00am ESE 8 9 - - - - - - - 26.6 1010.1 0.0
 
Date/Time
EST
Wind Sea
Height
m
Swell Vis
km
Cloud Weather Temp
°C
Press
MSL
hPa
Rain since
9am
mm
Dir  Spd
kts
Gust
kts
Height
m
Period
s
Dir
06/11:30pm ESE 7 8 - - - - - - - 26.5 1010.7 0.0
06/11:00pm ESE 8 9 - - - - - - - 26.6 1011.0 0.0
06/10:30pm ESE 8 10 - - - - - - - 26.8 1011.2 0.0
06/10:00pm SE 8 9 - - - - - - - 26.8 1011.2 0.0
06/09:30pm SE 7 9 - - - - - - - 26.8 1011.3 0.0
06/09:00pm SE 7 9 - - - - - - - 26.7 1010.8 0.0
06/08:30pm SE 7 8 - - - - - - - 26.7 1010.5 0.0
06/08:00pm SSE 6 7 - - - - - - - 26.8 1010.3 0.0
06/07:30pm SSE 5 6 - - - - - - - 26.9 1009.9 0.0
06/07:00pm SW 4 4 - - - - - - - 26.9 1009.5 0.0
06/06:30pm SSW 4 6 - - - - - - - 27.2 1009.1 0.0
06/06:00pm SW 6 7 - - - - - - - 27.7 1008.7 0.0
06/05:30pm WSW 6 7 - - - - - - - 28.2 1008.3 0.0
06/05:00pm WSW 6 8 - - - - - - - 28.8 1008.2 0.0
06/04:30pm WSW 6 8 - - - - - - - 29.1 1008.0 0.0
06/04:00pm WSW 6 8 - - - - - - - 29.4 1007.9 0.0
06/03:30pm SW 6 7 - - - - - - - 29.2 1007.7 0.0
06/03:00pm WSW 5 7 - - - - - - - 29.2 1007.4 0.0
06/02:30pm W 6 8 - - - - - - - 29.7 1007.5 0.0
06/02:00pm W 5 8 - - - - - - - 29.6 1007.4 0.0
06/01:30pm WNW 5 7 - - - - - - - 29.6 1007.5 0.0
06/01:00pm WNW 5 7 - - - - - - - 29.3 1007.9 0.0
06/12:30pm WNW 6 8 - - - - - - - 29.5 1008.2 0.0
06/12:00pm WNW 6 8 - - - - - - - 29.3 1008.5 0.0
06/11:30am W 6 8 - - - - - - - 29.5 1008.8 0.0
06/11:00am WNW 6 8 - - - - - - - 29.2 1009.2 0.0
06/10:30am WNW 5 7 - - - - - - - 28.9 1009.3 0.0
06/10:00am WNW 5 6 - - - - - - - 28.9 1009.5 0.0
06/09:30am ENE 4 5 - - - - - - - 28.9 1009.5 0.0
06/09:00am SSW 4 5 - - - - - - - 28.5 1009.1 0.2
06/08:30am W 5 6 - - - - - - - 28.1 1009.0 0.2
06/08:00am SW 5 5 - - - - - - - 27.8 1008.8 0.2
06/07:30am WSW 3 5 - - - - - - - 27.5 1008.4 0.2
06/07:00am SW 5 6 - - - - - - - 26.7 1008.1 0.2
06/06:30am WSW 5 7 - - - - - - - 26.1 1007.8 0.2
06/06:00am S 4 5 - - - - - - - 25.9 1007.2 0.2
06/05:30am SSW 4 5 - - - - - - - 25.9 1006.9 0.2
06/05:00am S 4 5 - - - - - - - 26.0 1006.6 0.2
06/04:30am SE 3 6 - - - - - - - 25.9 1006.4 0.2
06/04:00am S 5 6 - - - - - - - 26.1 1006.1 0.2
06/03:30am SSE 4 5 - - - - - - - 26.1 1006.2 0.2
06/03:00am SSE 5 7 - - - - - - - 26.3 1006.3 0.2
06/02:30am S 7 9 - - - - - - - 26.4 1006.4 0.2
06/02:00am SSE 7 9 - - - - - - - 26.6 1006.8 0.2
06/01:30am SSE 8 10 - - - - - - - 26.7 1007.1 0.2
06/01:00am S 9 11 - - - - - - - 26.8 1007.2 0.2
06/12:30am S 10 12 - - - - - - - 26.9 1007.5 0.2
06/12:00am S 10 13 - - - - - - - 27.1 1007.7 0.2
 
Date/Time
EST
Wind Sea
Height
m
Swell Vis
km
Cloud Weather Temp
°C
Press
MSL
hPa
Rain since
9am
mm
Dir  Spd
kts
Gust
kts
Height
m
Period
s
Dir
05/11:30pm S 11 14 - - - - - - - 27.2 1007.9 0.2
05/11:00pm S 12 14 - - - - - - - 27.1 1008.1 0.2
05/10:30pm S 11 13 - - - - - - - 27.2 1008.1 0.2
05/10:00pm S 13 15 - - - - - - - 27.3 1007.9 0.2
05/09:30pm S 13 15 - - - - - - - 27.3 1007.6 0.2
05/09:00pm S 13 15 - - - - - - - 27.3 1007.5 0.2
05/08:30pm SSW 15 17 - - - - - - - 27.4 1007.0 0.2
05/08:00pm S 14 18 - - - - - - - 27.4 1006.9 0.2
05/07:30pm SSW 17 19 - - - - - - - 27.6 1006.6 0.2
05/07:00pm SSW 18 21 - - - - - - - 27.6 1006.1 0.2
05/06:30pm SSW 19 21 - - - - - - - 27.5 1005.6 0.2
05/06:00pm SSW 20 25 - - - - - - - 27.6 1005.1 0.2
05/05:30pm SSW 20 23 - - - - - - - 27.7 1004.8 0.2
05/05:00pm SSW 21 24 - - - - - - - 28.0 1004.5 0.2
05/04:30pm SSW 21 25 - - - - - - - 28.3 1004.1 0.2
05/04:00pm SSW 22 26 - - - - - - - 28.6 1003.8 0.2
05/03:30pm SSW 22 25 - - - - - - - 28.7 1003.8 0.2
05/03:00pm SSW 23 27 - - - - - - - 28.4 1003.7 0.2
05/02:30pm SSW 22 26 - - - - - - - 28.2 1003.5 0.2
05/02:00pm S 17 20 - - - - - - - 27.7 1003.5 0.2
05/01:30pm SSW 21 25 - - - - - - - 28.0 1003.6 0.2
05/01:00pm SSW 20 23 - - - - - - - 28.0 1004.2 0.2
05/12:30pm SSW 22 25 - - - - - - - 27.8 1004.5 0.2
05/12:00pm SSW 24 29 - - - - - - Recent precip. 27.3 1004.7 0.2
05/11:30am SSW 21 27 - - - - - - - 26.6 1004.9 0.0
05/11:00am SSW 20 24 - - - - - - - 27.8 1004.9 0.0
05/10:30am SSW 27 33 - - - - - - - 27.4 1004.7 0.0
05/10:00am SSW 23 27 - - - - - - - 28.0 1004.4 0.0
05/09:30am SSW 23 30 - - - - - - - 27.8 1004.3 0.0
05/09:00am SSW 24 28 - - - - - - - 27.8 1004.4 18.4
05/08:30am SSW 22 26 - - - - - - - 27.2 1003.9 18.4
05/08:00am S 21 25 - - - - - - - 26.0 1003.4 18.4
05/07:46am S 27 37 - - - - - - - 25.6 1003.2 18.4
05/07:37am SSW 23 37 - - - - - - - 26.1 1003.0 18.2
05/07:34am SSW 21 31 - - - - - - - 26.5 1002.8 18.2
05/07:30am SSW 21 26 - - - - - - - 26.0 1002.8 18.2
05/07:00am SSW 23 29 - - - - - - - 25.8 1002.4 17.4
05/06:30am S 28 34 - - - - - - - 27.1 1001.7 17.2
05/06:00am SSW 28 34 - - - - - - Recent precip. 26.7 1001.0 17.2
05/05:30am SSW 27 33 - - - - - - - 26.9 1000.5 17.2
05/05:00am SSW 30 36 - - - - - - - 26.1 1000.1 16.8
05/04:38am S 27 37 - - - - - - - 27.0 999.2 16.8
05/04:30am S 30 36 - - - - - - - 26.9 999.0 16.8
05/04:00am S 30 36 - - - - - - - 26.8 998.2 16.6
05/03:30am SSW 30 35 - - - - - - - 26.5 998.0 16.6
05/03:00am S 32 38 - - - - - - - 27.3 997.2 16.6
05/02:30am S 32 39 - - - - - - - 27.0 996.8 16.6
05/02:00am S 31 38 - - - - - - - 25.9 996.7 16.6
05/01:30am S 30 42 - - - - - - - 25.9 996.3 16.6
05/01:27am S 28 42 - - - - - - - 25.7 996.3 16.6
05/01:00am SSW 26 33 - - - - - - - 25.7 996.3 15.8
05/12:30am SSW 31 36 - - - - - - - 25.3 996.0 14.8
05/12:11am SSW 33 39 - - - - - - - 25.1 996.0 14.4
05/12:00am SSE 31 36 - - - - - - Rain 26.0 996.2 14.2
 
Date/Time
EST
Wind Sea
Height
m
Swell Vis
km
Cloud Weather Temp
°C
Press
MSL
hPa
Rain since
9am
mm
Dir  Spd
kts
Gust
kts
Height
m
Period
s
Dir
04/11:55pm SSE 31 41 - - - - - - - 26.5 996.2 14.0
04/11:30pm SSE 29 36 - - - - - - - 26.0 995.7 13.8
04/11:22pm SSE 31 41 - - - - - - - 25.6 995.6 13.8
04/11:00pm SSE 35 42 - - - - - - - 25.8 995.3 13.8
04/10:30pm SSE 36 45 - - - - - - - 25.9 995.0 13.0
04/10:00pm SSE 36 45 - - - - - - - 25.2 994.4 12.4
04/09:44pm SE 36 44 - - - - - - - 25.4 994.1 11.8
04/09:30pm SE 36 44 - - - - - - - 26.0 993.8 10.4
04/09:00pm SE 38 47 - - - - - - - 26.1 993.3 10.2
04/08:30pm SE 37 46 - - - - - - - 26.0 992.7 10.2
04/08:00pm ESE 38 45 - - - - - - - 26.0 992.4 10.2

Other formats

Comma delimited format used in spreadsheet applications
http://www.bom.gov.au/fwo/IDQ60701/IDQ60701.94299.axf

JavaScript Object Notation format (JSON) in row-major order
http://www.bom.gov.au/fwo/IDQ60701/IDQ60701.94299.json

Data quality

Most of these data are generated automatically and are frequently updated. Quality checks on data are not normally performed. It is possible for incorrect values to appear. Refer to information at About Latest Weather Observations and please check the disclaimer before using these data.